FW5262 Weather Reports


Display with metric or nautical units.
time (UTC)temp
F
wind
direction
speed
MPH
gust
MPH
rain 1hr
in
rain 24hr
in
rain mn
in
humidity
%
barometer
mb
20260906224836 98 73 5.0 12.0 0.00 0.00 0.00 37 941.8
20260906224337 98 148 5.0 12.0 0.00 0.00 0.00 37 941.7
20260906223837 98 163 5.0 12.0 0.00 0.00 0.00 38 941.8
20260906222837 98 161 7.0 14.0 0.00 0.00 0.00 37 942.0
20260906221337 99 123 2.0 13.0 0.00 0.00 0.00 36 942.1
20260906220836 98 166 2.0 8.0 0.00 0.00 0.00 40 942.0
20260906220337 97 117 4.0 10.0 0.00 0.00 0.00 38 942.1
20260906220054 96 160 5.0 11.0 0.00 0.00 0.00 39 942.2
20260906215333 95 141 5.0 11.0 0.00 0.00 0.00 39 942.2
20260906214330 95 76 8.0 13.0 0.00 0.00 0.00 40 942.3
20260906213830 95 109 8.0 15.0 0.00 0.00 0.00 40 942.3
20260906213331 95 82 7.0 18.0 0.00 0.00 0.00 39 942.3
20260906212831 96 121 5.0 18.0 0.00 0.00 0.00 39 942.4
20260906212331 96 101 4.0 11.0 0.00 0.00 0.00 38 942.5
20260906211830 97 180 4.0 10.0 0.00 0.00 0.00 37 942.5
20260906211600 97 184 5.0 10.0 0.00 0.00 0.00 37 942.5
20260906211047 96 157 5.0 10.0 0.00 0.00 0.00 40 942.6
20260906210326 95 157 6.0 10.0 0.00 0.00 0.00 39 942.7
20260906205826 95 63 6.0 10.0 0.00 0.00 0.00 40 942.8
20260906205327 96 49 4.0 10.0 0.00 0.00 0.00 40 942.9
20260906204827 96 114 4.0 9.0 0.00 0.00 0.00 39 942.9
20260906204326 96 100 5.0 14.0 0.00 0.00 0.00 39 943.0
20260906203826 96 123 5.0 14.0 0.00 0.00 0.00 39 943.0
20260906203327 96 355 4.0 11.0 0.00 0.00 0.00 38 942.9
20260906202826 96 102 5.0 11.0 0.00 0.00 0.00 38 943.0
20260906202536 97 87 4.0 11.0 0.00 0.00 0.00 38 943.1
20260906201814 98 169 4.0 12.0 0.00 0.00 0.00 37 943.1
20260906201308 98 205 6.0 12.0 0.00 0.00 0.00 38 943.1
20260906200801 98 155 5.0 12.0 0.00 0.00 0.00 37 943.1
20260906200255 98 172 5.0 12.0 0.00 0.00 0.00 41 943.2
20260906195749 96 151 7.0 13.0 0.00 0.00 0.00 40 943.4
20260906195243 96 110 6.0 13.0 0.00 0.00 0.00 40 943.5
20260906195009 96 199 6.0 11.0 0.00 0.00 0.00 40 943.5
20260906194232 96 124 8.0 13.0 0.00 0.00 0.00 39 943.6
20260906193726 97 92 5.0 13.0 0.00 0.00 0.00 40 943.6
20260906193220 97 75 4.0 11.0 0.00 0.00 0.00 40 943.6
20260906192714 97 117 5.0 12.0 0.00 0.00 0.00 40 943.8
20260906192208 97 93 5.0 12.0 0.00 0.00 0.00 41 943.8
20260906191702 96 147 5.0 12.0 0.00 0.00 0.00 40 943.9
20260906191156 96 16 7.0 13.0 0.00 0.00 0.00 42 944.0
20260906190650 96 113 9.0 14.0 0.00 0.00 0.00 41 944.1
20260906190143 96 85 7.0 14.0 0.00 0.00 0.00 41 944.0
20260906185903 97 80 6.0 16.0 0.00 0.00 0.00 40 944.0
20260906185132 96 145 6.0 16.0 0.00 0.00 0.00 40 944.1
20260906184626 95 168 5.0 12.0 0.00 0.00 0.00 41 944.2
20260906184120 95 123 5.0 12.0 0.00 0.00 0.00 43 944.3
20260906183614 95 190 4.0 12.0 0.00 0.00 0.00 41 944.4
20260906183108 96 148 3.0 8.0 0.00 0.00 0.00 43 944.5
20260906182602 95 195 5.0 13.0 0.00 0.00 0.00 45 944.5
20260906182055 95 111 6.0 13.0 0.00 0.00 0.00 47 944.6
20260906181549 94 98 5.0 13.0 0.00 0.00 0.00 43 944.7
20260906181043 95 34 4.0 9.0 0.00 0.00 0.00 42 944.7
20260906180537 94 53 3.0 8.0 0.00 0.00 0.00 44 944.8
20260906180031 93 10 4.0 9.0 0.00 0.00 0.00 45 945.0
20260906175526 93 90 6.0 11.0 0.00 0.00 0.00 46 945.1
20260906175020 94 76 6.0 11.0 0.00 0.00 0.00 44 945.2
20260906174514 95 70 6.0 12.0 0.00 0.00 0.00 44 945.3
20260906174007 95 78 7.0 12.0 0.00 0.00 0.00 42 945.4
20260906173502 95 58 4.0 12.0 0.00 0.00 0.00 48 945.5
20260906172955 95 5 4.0 9.0 0.00 0.00 0.00 46 945.5
20260906172449 94 130 6.0 12.0 0.00 0.00 0.00 44 945.5
20260906171944 94 86 6.0 12.0 0.00 0.00 0.00 45 945.6
20260906171438 94 29 6.0 10.0 0.00 0.00 0.00 46 945.6
20260906170932 94 88 7.0 14.0 0.00 0.00 0.00 45 945.7
20260906170426 94 113 6.0 14.0 0.00 0.00 0.00 46 945.6
20260906165920 93 111 5.0 15.0 0.00 0.00 0.00 47 945.7
20260906165414 94 136 6.0 15.0 0.00 0.00 0.00 47 945.7
20260906164908 93 117 8.0 16.0 0.00 0.00 0.00 44 945.8
20260906164401 93 143 8.0 16.0 0.00 0.00 0.00 46 945.9
20260906163855 92 105 8.0 14.0 0.00 0.00 0.00 47 945.9
20260906163349 92 79 7.0 14.0 0.00 0.00 0.00 46 945.9
20260906162844 93 36 4.0 10.0 0.00 0.00 0.00 46 945.8
20260906162338 92 325 4.0 10.0 0.00 0.00 0.00 46 945.9
20260906161832 92 128 3.0 10.0 0.00 0.00 0.00 47 945.9
20260906161326 92 79 3.0 8.0 0.00 0.00 0.00 46 945.9
20260906160820 92 42 4.0 8.0 0.00 0.00 0.00 50 945.9
20260906160314 92 93 3.0 7.0 0.00 0.00 0.00 48 945.9
20260906155807 92 149 2.0 5.0 0.00 0.00 0.00 50 945.9
20260906155301 91 166 2.0 4.0 0.00 0.00 0.00 53 945.8
20260906155015 91 121 3.0 5.0 0.00 0.00 0.00 52 945.9
20260906154250 91 192 2.0 5.0 0.00 0.00 0.00 54 945.9
20260906153743 90 119 2.0 4.0 0.00 0.00 0.00 54 945.8
20260906153238 90 84 1.0 4.0 0.00 0.00 0.00 54 945.9
20260906152731 90 217 2.0 4.0 0.00 0.00 0.00 56 945.8
20260906152225 90 253 1.0 4.0 0.00 0.00 0.00 55 945.7
20260906151936 89 317 2.0 4.0 0.00 0.00 0.00 58 945.7
20260906151214 89 300 2.0 4.0 0.00 0.00 0.00 59 945.7
20260906150708 88 321 1.0 3.0 0.00 0.00 0.00 60 945.7
20260906150202 88 223 2.0 5.0 0.00 0.00 0.00 60 945.6
20260906145656 87 241 2.0 5.0 0.00 0.00 0.00 59 945.6
20260906145149 87 300 2.0 5.0 0.00 0.00 0.00 60 945.7
20260906144643 87 267 1.0 5.0 0.00 0.00 0.00 61 945.6
20260906144403 86 279 1.0 4.0 0.00 0.00 0.00 60 945.6
20260906143641 85 313 1.0 3.0 0.00 0.00 0.00 65 945.7
20260906143406 84 281 1.0 5.0 0.00 0.00 0.00 65 945.7
20260906142642 84 257 2.0 6.0 0.00 0.00 0.00 64 945.8
20260906142142 83 239 3.0 6.0 0.00 0.00 0.00 65 945.8
20260906141642 83 199 2.0 5.0 0.00 0.00 0.00 66 945.8
20260906141139 82 169 2.0 5.0 0.00 0.00 0.00 66 945.7
20260906140640 81 190 2.0 5.0 0.00 0.00 0.00 66 945.7
20260906140141 81 177 1.0 4.0 0.00 0.00 0.00 68 945.7
20260906135640 80 167 0.0 3.0 0.00 0.00 0.00 68 945.6
20260906134137 78 206 0.0 0.0 0.00 0.00 0.00 71 945.6
20260906133638 77 163 0.0 0.0 0.00 0.00 0.00 74 945.7
20260906132138 74 97 0.0 0.0 0.00 0.00 0.00 79 945.7
20260906131358 72 97 0.0 0.0 0.00 0.00 0.00 81 945.6
20260906130858 72 97 0.0 0.0 0.00 0.00 0.00 82 945.5
20260906130136 71 97 0.0 0.0 0.00 0.00 0.00 83 945.5
20260906125636 70 97 0.0 0.0 0.00 0.00 0.00 84 945.3
20260906125136 70 97 0.0 0.0 0.00 0.00 0.00 84 945.2
20260906123632 70 97 0.0 0.0 0.00 0.00 0.00 83 945.0
20260906123131 70 97 0.0 0.0 0.00 0.00 0.00 83 944.9
20260906122632 70 97 0.0 0.0 0.00 0.00 0.00 83 944.8
20260906122132 69 97 0.0 0.0 0.00 0.00 0.00 83 944.8
20260906121632 69 117 0.0 0.0 0.00 0.00 0.00 84 944.7
20260906121131 70 117 0.0 0.0 0.00 0.00 0.00 84 944.7
20260906120854 69 117 0.0 0.0 0.00 0.00 0.00 83 944.7
20260906120129 69 117 0.0 0.0 0.00 0.00 0.00 82 944.6
20260906115854 70 117 0.0 0.0 0.00 0.00 0.00 82 944.6
20260906115116 70 117 0.0 0.0 0.00 0.00 0.00 82 944.5
20260906114611 70 117 0.0 0.0 0.00 0.00 0.00 81 944.5
20260906114104 70 117 0.0 0.0 0.00 0.00 0.00 81 944.4
20260906113559 70 117 0.0 0.0 0.00 0.00 0.00 81 944.3
20260906113314 70 117 0.0 0.0 0.00 0.00 0.00 81 944.4
20260906112547 70 117 0.0 0.0 0.00 0.00 0.00 81 944.5
20260906112311 70 117 0.0 0.0 0.00 0.00 0.00 81 944.5
20260906111801 70 117 0.0 0.0 0.00 0.00 0.00 80 944.4
20260906111029 70 117 0.0 0.0 0.00 0.00 0.00 80 944.3
20260906110523 71 117 0.0 0.0 0.00 0.00 0.00 80 944.3
20260906110017 71 117 0.0 2.0 0.00 0.00 0.00 81 944.3
20260906105511 71 117 1.0 4.0 0.00 0.00 0.00 79 944.2
20260906105005 71 117 1.0 4.0 0.00 0.00 0.00 80 944.1
20260906104458 71 117 0.0 4.0 0.00 0.00 0.00 81 944.2
20260906103959 71 101 0.0 0.0 0.00 0.00 0.00 83 944.2
20260906103459 71 84 0.0 0.0 0.00 0.00 0.00 80 944.1
20260906103000 71 84 0.0 0.0 0.00 0.00 0.00 80 944.1
20260906095951 71 97 0.0 1.0 0.00 0.00 0.00 81 944.0
20260906095449 71 97 0.0 0.0 0.00 0.00 0.00 81 943.9
20260906094947 71 97 0.0 0.0 0.00 0.00 0.00 79 943.9
20260906094445 71 97 0.0 0.0 0.00 0.00 0.00 79 943.9
20260906093943 71 97 0.0 0.0 0.00 0.00 0.00 80 943.9
20260906093441 71 97 0.0 1.0 0.00 0.00 0.00 80 943.9
20260906092941 71 97 0.0 1.0 0.00 0.00 0.00 80 944.0
20260906092438 71 97 1.0 2.0 0.00 0.00 0.00 78 944.0
20260906091935 71 97 1.0 2.0 0.00 0.00 0.00 79 943.9
20260906091439 71 97 0.0 2.0 0.00 0.00 0.00 79 943.8
20260906085931 72 125 0.0 0.0 0.00 0.00 0.00 77 943.8
20260906085136 72 125 0.0 0.0 0.00 0.00 0.00 76 943.8
20260906084413 72 125 0.0 0.0 0.00 0.00 0.00 77 943.8
20260906084127 72 125 0.0 0.0 0.00 0.00 0.00 74 943.8
20260906083400 72 125 0.0 0.0 0.00 0.00 0.00 74 943.8
20260906082854 73 125 0.0 1.0 0.00 0.00 0.00 74 943.7
20260906081553 73 125 1.0 3.0 0.00 0.00 0.00 73 943.6
20260906080324 73 138 1.0 3.0 0.00 0.00 0.00 73 943.7
20260906075818 74 130 0.0 2.0 0.00 0.00 0.00 71 943.7
20260906075312 74 109 0.0 1.0 0.00 0.00 0.00 71 943.8
20260906074806 74 109 0.0 1.0 0.00 0.00 0.00 70 943.8
20260906074300 74 109 1.0 3.0 0.00 0.00 0.00 70 943.9
20260906073755 74 109 2.0 3.0 0.00 0.00 0.00 70 943.9
20260906073249 74 100 2.0 4.0 0.00 0.00 0.00 70 944.0
20260906072743 74 103 2.0 4.0 0.00 0.00 0.00 70 944.1
20260906072236 74 96 2.0 3.0 0.00 0.00 0.00 73 944.2
20260906071730 74 113 1.0 3.0 0.00 0.00 0.00 71 944.2
20260906071224 74 102 0.0 2.0 0.00 0.00 0.00 71 944.2
20260906070718 74 242 0.0 0.0 0.00 0.00 0.00 69 944.2
20260906070212 75 242 0.0 2.0 0.00 0.00 0.00 68 944.2
20260906065926 75 95 1.0 3.0 0.00 0.00 0.00 67 944.2
20260906065201 76 95 2.0 3.0 0.00 0.00 0.00 67 944.3
20260906064655 76 101 2.0 4.0 0.00 0.00 0.00 66 944.3
20260906064149 75 91 2.0 4.0 0.00 0.00 0.00 67 944.4
20260906063643 75 107 0.0 4.0 0.00 0.00 0.00 68 944.4
20260906063355 75 142 0.0 2.0 0.00 0.00 0.00 67 944.5
20260906062631 75 150 1.0 3.0 0.00 0.00 0.00 67 944.5
20260906062124 75 148 1.0 4.0 0.00 0.00 0.00 67 944.6
20260906061618 76 116 1.0 4.0 0.00 0.00 0.00 68 944.6
20260906061112 76 104 0.0 0.0 0.00 0.00 0.00 68 944.6
20260906060613 76 104 0.0 0.0 0.00 0.00 0.00 65 944.6
20260906060113 77 104 0.0 0.0 0.00 0.00 0.00 64 944.6
20260906055612 77 104 0.0 0.0 0.00 0.00 0.00 65 944.6
20260906055111 78 104 1.0 3.0 0.00 0.00 0.00 62 944.6
20260906054609 78 104 2.0 3.0 0.00 0.00 0.00 61 944.6
20260906054109 78 108 2.0 3.0 0.00 0.00 0.00 60 944.5
20260906053608 79 112 2.0 4.0 0.00 0.00 0.00 60 944.5
20260906053109 79 110 3.0 4.0 0.00 0.00 0.00 58 944.5
20260906052609 79 98 3.0 4.0 0.00 0.00 0.00 58 944.4
20260906052108 79 111 3.0 4.0 0.00 0.00 0.00 58 944.4
20260906051831 79 102 3.0 4.0 0.00 0.00 0.00 59 944.4
20260906051108 79 82 3.0 4.0 0.00 0.00 0.00 59 944.4
20260906050609 78 105 3.0 4.0 0.00 0.00 0.00 60 944.4
20260906050109 79 118 3.0 4.0 0.00 0.00 0.00 62 944.4
20260906045831 79 141 2.0 3.0 0.00 0.00 0.00 60 944.4
20260906045331 79 136 2.0 3.0 0.00 0.00 0.00 62 944.4
20260906044607 80 134 2.0 3.0 0.00 0.00 0.00 62 944.4
20260906044108 80 135 2.0 4.0 0.00 0.00 0.00 58 944.4
20260906043608 80 147 2.0 4.0 0.00 0.00 0.00 56 944.5
20260906043107 80 128 2.0 4.0 0.00 0.00 0.00 57 944.5
20260906042607 81 134 2.0 4.0 0.00 0.00 0.00 57 944.4
20260906042334 81 119 2.0 4.0 0.00 0.00 0.00 58 944.4
20260906041608 82 105 2.0 4.0 0.00 0.00 0.00 56 944.4
20260906041108 82 116 2.0 4.0 0.00 0.00 0.00 57 944.4
20260906040607 82 107 3.0 6.0 0.00 0.00 0.00 55 944.3
20260906040331 83 94 3.0 6.0 0.00 0.00 0.00 53 944.4
20260906035608 83 104 3.0 6.0 0.00 0.00 0.00 52 944.3
20260906035108 83 105 3.0 6.0 0.00 0.00 0.00 52 944.3
20260906034607 83 112 3.0 6.0 0.00 0.00 0.00 52 944.2
20260906034108 83 101 3.0 4.0 0.00 0.00 0.00 51 944.2
20260906033608 83 78 3.0 4.0 0.00 0.00 0.00 51 944.2
20260906033107 83 115 3.0 6.0 0.00 0.00 0.00 52 944.1
20260906032601 84 108 3.0 6.0 0.00 0.00 0.00 50 944.0
20260906032321 84 110 3.0 6.0 0.00 0.00 0.00 50 943.9
20260906031548 84 97 3.0 4.0 0.00 0.00 0.00 49 943.8
20260906031043 85 109 3.0 6.0 0.00 0.00 0.00 50 943.8
20260906030806 85 100 3.0 6.0 0.00 0.00 0.00 48 943.7
20260906030031 85 101 3.0 7.0 0.00 0.00 0.00 48 943.6
20260906025523 86 86 3.0 7.0 0.00 0.00 0.00 47 943.5
20260906025241 86 113 4.0 7.0 0.00 0.00 0.00 46 943.5
20260906024511 86 85 4.0 8.0 0.00 0.00 0.00 46 943.4
20260906024005 87 94 4.0 8.0 0.00 0.00 0.00 46 943.4
20260906023459 87 92 4.0 7.0 0.00 0.00 0.00 46 943.2
20260906023219 87 98 4.0 6.0 0.00 0.00 0.00 46 943.2
20260906022447 88 84 4.0 8.0 0.00 0.00 0.00 45 943.2
20260906021941 88 93 5.0 8.0 0.00 0.00 0.00 44 943.0
20260906021652 89 102 5.0 9.0 0.00 0.00 0.00 44 943.0
20260906020928 89 103 5.0 9.0 0.00 0.00 0.00 43 942.9
20260906020648 89 117 5.0 8.0 0.00 0.00 0.00 43 942.9
20260906015917 90 102 6.0 9.0 0.00 0.00 0.00 42 942.8
20260906015411 90 110 6.0 9.0 0.00 0.00 0.00 42 942.7
20260906014904 90 118 6.0 9.0 0.00 0.00 0.00 41 942.7
20260906014625 90 155 6.0 10.0 0.00 0.00 0.00 41 942.7
20260906013853 91 106 6.0 10.0 0.00 0.00 0.00 41 942.5
20260906013347 91 120 6.0 11.0 0.00 0.00 0.00 40 942.5
20260906012841 91 82 6.0 11.0 0.00 0.00 0.00 40 942.4
20260906012334 91 108 6.0 11.0 0.00 0.00 0.00 40 942.3
20260906011828 92 103 7.0 13.0 0.00 0.00 0.00 40 942.2
20260906011323 92 109 8.0 14.0 0.00 0.00 0.00 39 942.2
20260906010817 92 110 8.0 14.0 0.00 0.00 0.00 39 942.1
20260906010311 92 153 7.0 12.0 0.00 0.00 0.00 38 942.1
20260906005804 93 90 8.0 14.0 0.00 0.00 0.00 38 942.0
20260906005259 93 92 9.0 14.0 0.00 0.00 0.00 38 941.9
20260906005012 93 103 10.0 15.0 0.00 0.00 0.00 38 942.0
20260906004247 94 102 10.0 18.0 0.00 0.00 0.00 38 941.9
20260906003741 94 125 10.0 18.0 0.00 0.00 0.00 38 941.9
20260906003234 94 111 9.0 18.0 0.00 0.00 0.00 38 941.9
20260906002728 95 88 8.0 14.0 0.00 0.00 0.00 38 941.9
20260906002222 95 138 8.0 14.0 0.00 0.00 0.00 38 941.9
20260906001948 95 112 9.0 15.0 0.00 0.00 0.00 38 941.8
20260906000704 96 112 9.0 15.0 0.00 0.00 0.00 38 941.8
20260906000158 96 106 9.0 15.0 0.00 0.00 0.00 38 941.7
20260905235652 96 120 9.0 15.0 0.00 0.00 0.00 38 941.7
20260905235146 97 92 9.0 15.0 0.00 0.00 0.00 37 941.7
20260905234905 97 116 9.0 15.0 0.00 0.00 0.00 37 941.7
20260905234135 97 73 9.0 15.0 0.00 0.00 0.00 37 941.6
20260905233853 97 102 10.0 16.0 0.00 0.00 0.00 37 941.5
20260905233123 97 134 10.0 16.0 0.00 0.00 0.00 37 941.4
20260905232617 97 98 9.0 16.0 0.00 0.00 0.00 37 941.4
20260905232110 98 101 8.0 14.0 0.00 0.00 0.00 36 941.3
20260905231604 98 121 7.0 12.0 0.00 0.00 0.00 36 941.3
20260905231058 98 111 7.0 14.0 0.00 0.00 0.00 36 941.3
20260905230553 98 172 7.0 15.0 0.00 0.00 0.00 36 941.3
20260905230047 98 112 6.0 15.0 0.00 0.00 0.00 38 941.3
20260905225541 98 146 6.0 15.0 0.00 0.00 0.00 38 941.3
20260905225306 98 141 7.0 15.0 0.00 0.00 0.00 37 941.3